Regional Weather Roundup
Issued by NWS

Home | Current Version | Previous Version | Text Only | Print | Product List | Glossary On
Versions: 1 2 3 4 5 6 7 8 9 10 11 12 13 14 15 16 17 18 19 20 21 22 23 24 25 26 27 28
000
ASUS45 KREV 020910
RWRNV
NEVADA REGIONAL WEATHER ROUNDUP
NATIONAL WEATHER SERVICE RENO NV
200 AM PDT MON MAY 02 2016

NOTE: "FAIR" INDICATES FEW OR NO CLOUDS BELOW 12,000 FEET WITH NO
SIGNIFICANT WEATHER AND/OR OBSTRUCTIONS TO VISIBILITY.

NVZ001-003-004-021000-
WESTERN NEVADA

CITY           SKY/WX    TMP DP  RH WIND       PRES   REMARKS
RENO           PTCLDY    49  37  63 SW3       30.08R
CARSON CITY    FAIR      41  36  81 CALM      30.10S
MINDEN         FAIR      36  34  93 SE5       30.11S
PYRAMID LAKE     N/A     57 N/A N/A S6          N/A
FALLON         CLEAR     43  33  68 S7        30.06S
LOVELOCK       CLEAR     39  29  67 CALM      30.06R
$$

NVZ002-CAZ072-073-021000-
NORTHERN AND CENTRAL SIERRA

CITY           SKY/WX    TMP DP  RH WIND       PRES   REMARKS
S. LAKE TAHOE  PTCLDY    34  31  88 CALM      30.12S
TRUCKEE        CLEAR     32  30  93 CALM      30.13S
SQUAW VLY 8000   N/A     36  30  80 SW3         N/A
BLUE CANYON    PTCLDY    49  31  49 E5        30.10S
MAMMOTH LAKES  FAIR      32  30  92 CALM      30.17F
BRIDGEPORT     CLOUDY    34  30  85 CALM      30.13F
$$

NVZ030-031-036-021000-
NORTHERN NEVADA

CITY           SKY/WX    TMP DP  RH WIND       PRES   REMARKS
ELKO           CLEAR     39  30  70 CALM      30.13S
WINNEMUCCA     CLEAR     37  31  78 SE7       30.08S
WENDOVER       PTCLDY    43  34  70 CALM      30.13S
$$

NVZ035-037-021000-
CENTRAL NEVADA

CITY           SKY/WX    TMP DP  RH WIND       PRES   REMARKS
ELY            CLEAR     31  28  89 S5        30.17S
EUREKA           N/A     32  27  81 CALM      30.13S
$$

NVZ013-014-021000-
SOUTH CENTRAL NEVADA

CITY           SKY/WX    TMP DP  RH WIND       PRES   REMARKS
TONOPAH        CLOUDY    45  35  68 NE8       30.11F
$$

NVZ017-020-022-021000-
SOUTHERN NEVADA

CITY           SKY/WX    TMP DP  RH WIND       PRES   REMARKS
LAS VEGAS      PTCLDY    61  43  51 SW6       29.96S
N. LAS VEGAS   CLEAR     58  44  60 N6        29.99S
NELLIS AFB     CLEAR     57  49  76 NE1       29.99R
HENDERSON      CLEAR     56  46  69 S7        30.02S
MERCURY        MOCLDY    54  43  66 NE7       30.03R
$$




USA.gov is the U.S. government's official web portal to all federal, state and local government web resources and services.